FW6622 Weather Reports


time (UTC)temp
C
wind
direction
speed
KPH
gust
KPH
rain 1hr
cm
rain 24hr
cm
rain mn
cm
humidity
%
barometer
mb
20260507170047 18 300 4.8 16.1 0.00 0.00 0.00 50 1022.4
20260507164541 17 31 6.4 16.1 0.00 0.00 0.00 50 1022.5
20260507163047 17 360 8.0 17.7 0.00 0.00 0.00 50 1022.5
20260507161545 16 22 6.4 16.1 0.00 0.00 0.00 55 1022.8
20260507160044 16 5 6.4 12.9 0.00 0.00 0.00 53 1022.9
20260507154547 16 342 6.4 14.5 0.00 0.00 0.00 54 1023.0
20260507153049 16 304 4.8 11.3 0.00 0.00 0.00 58 1023.1
20260507151549 15 5 4.8 12.9 0.00 0.00 0.00 56 1023.3
20260507150047 15 61 4.8 9.7 0.00 0.00 0.00 62 1023.5
20260507144545 14 57 4.8 9.7 0.00 0.00 0.00 63 1023.7
20260507143046 13 17 4.8 9.7 0.00 0.00 0.00 65 1023.7
20260507141543 13 13 3.2 8.0 0.00 0.00 0.00 67 1023.8
20260507140048 13 46 3.2 6.4 0.00 0.00 0.00 68 1024.0
20260507134553 12 70 1.6 6.4 0.00 0.00 0.00 72 1024.1
20260507133051 11 254 1.6 4.8 0.00 0.00 0.00 72 1024.1
20260507131557 11 0 0.0 0.0 0.00 0.00 0.00 77 1024.3
20260507130058 10 267 0.0 3.2 0.00 0.00 0.00 78 1024.2
20260507124550 10 267 0.0 3.2 0.00 0.00 0.00 80 1023.9
20260507123049 8 267 0.0 3.2 0.00 0.00 0.00 83 1023.9
20260507121540 7 0 0.0 1.6 0.00 0.00 0.00 86 1023.7
20260507120047 6 0 0.0 1.6 0.00 0.00 0.00 86 1023.7
20260507114558 6 0 0.0 0.0 0.00 0.00 0.00 86 1023.4
20260507113045 6 0 0.0 0.0 0.00 0.00 0.00 84 1023.4
20260507111544 6 0 0.0 1.6 0.00 0.00 0.00 84 1023.4
20260507110042 6 0 0.0 3.2 0.00 0.00 0.00 83 1023.6
20260507104552 8 0 0.0 3.2 0.00 0.00 0.00 82 1023.5
20260507103049 8 317 1.6 4.8 0.00 0.00 0.00 82 1023.6
20260507101603 8 317 3.2 4.8 0.00 0.00 0.00 81 1023.5
20260507100045 8 317 1.6 4.8 0.00 0.00 0.00 81 1023.5
20260507094544 9 317 1.6 3.2 0.00 0.00 0.00 80 1023.5
20260507093048 9 0 0.0 3.2 0.00 0.00 0.00 80 1023.6
20260507091541 8 317 1.6 4.8 0.00 0.00 0.00 80 1023.7
20260507090046 8 317 3.2 6.4 0.00 0.00 0.00 78 1023.6
20260507084546 9 306 1.6 4.8 0.00 0.00 0.00 78 1023.6
20260507083045 9 306 1.6 4.8 0.00 0.00 0.00 79 1023.7
20260507081602 8 306 1.6 3.2 0.00 0.00 0.00 77 1023.7
20260507080050 8 0 0.0 1.6 0.00 0.00 0.00 81 1023.9
20260507074601 8 306 0.0 3.2 0.00 0.00 0.00 80 1024.2
20260507073049 8 0 0.0 1.6 0.00 0.00 0.00 82 1023.9
20260507071547 8 306 0.0 3.2 0.00 0.00 0.00 82 1024.2
20260507070048 8 306 0.0 1.6 0.00 0.00 0.00 83 1024.3
20260507064545 7 0 0.0 1.6 0.00 0.00 0.00 81 1024.6
20260507063045 7 0 0.0 1.6 0.00 0.00 0.00 83 1024.6
20260507061544 7 0 0.0 1.6 0.00 0.00 0.00 83 1024.4
20260507060043 6 0 0.0 3.2 0.00 0.00 0.00 86 1024.7
20260507054555 6 0 0.0 1.6 0.00 0.00 0.00 85 1024.6
20260507053039 6 0 0.0 1.6 0.00 0.00 0.00 85 1024.6
20260507051546 6 0 0.0 1.6 0.00 0.00 0.00 84 1024.5
20260507050050 6 0 0.0 1.6 0.00 0.00 0.00 83 1024.2
20260507044550 7 0 0.0 1.6 0.00 0.00 0.00 82 1024.3
20260507043048 7 306 0.0 1.6 0.00 0.00 0.00 81 1024.2
20260507041551 8 0 0.0 1.6 0.00 0.00 0.00 78 1024.1
20260507040046 8 0 0.0 0.0 0.00 0.00 0.00 81 1024.4
20260507034551 8 0 0.0 0.0 0.00 0.03 0.00 78 1024.2
20260507033046 7 0 0.0 1.6 0.00 0.03 0.00 82 1024.2
20260507031551 8 0 0.0 0.0 0.00 0.03 0.00 79 1024.3
20260507030053 9 0 0.0 0.0 0.00 0.03 0.00 76 1024.2
20260507024546 9 0 0.0 0.0 0.00 0.03 0.00 73 1024.0
20260507023044 10 0 0.0 0.0 0.00 0.03 0.00 68 1023.9
20260507021543 11 0 0.0 0.0 0.00 0.03 0.00 64 1023.5
20260507020050 12 0 0.0 1.6 0.00 0.03 0.00 57 1023.2
20260507014602 12 0 0.0 3.2 0.00 0.03 0.00 58 1023.2
20260507013053 13 306 0.0 4.8 0.00 0.03 0.00 52 1023.0
20260507011551 13 0 0.0 4.8 0.00 0.03 0.00 52 1023.0
20260507010044 14 312 0.0 9.7 0.00 0.03 0.00 48 1023.0
20260507004549 14 343 1.6 11.3 0.00 0.03 0.00 47 1022.9
20260507003052 15 223 1.6 9.7 0.00 0.03 0.00 47 1022.7
20260507001602 15 183 3.2 6.4 0.00 0.03 0.00 46 1022.7
20260507000045 15 0 1.6 9.7 0.00 0.03 0.00 45 1022.6
20260506234543 15 178 0.0 12.9 0.00 0.03 0.00 48 1022.4
20260506233108 16 118 4.8 14.5 0.00 0.03 0.00 43 1022.4
20260506231551 16 159 3.2 9.7 0.00 0.03 0.00 44 1022.2
20260506230051 17 201 4.8 14.5 0.00 0.03 0.00 42 1022.2
20260506224546 16 191 3.2 12.9 0.00 0.03 0.00 42 1022.1
20260506223043 17 242 3.2 14.5 0.00 0.03 0.00 43 1021.9
20260506221543 17 248 3.2 11.3 0.00 0.03 0.00 41 1021.8
20260506220044 17 132 3.2 12.9 0.00 0.03 0.00 41 1022.0
20260506214540 17 144 6.4 16.1 0.00 0.03 0.00 44 1022.0
20260506213102 17 294 9.7 19.3 0.00 0.03 0.00 39 1022.1
20260506211548 16 103 3.2 16.1 0.00 0.03 0.00 42 1022.1
20260506210045 17 221 1.6 16.1 0.00 0.03 0.00 43 1022.3
20260506204549 16 263 6.4 16.1 0.00 0.03 0.00 39 1022.5
20260506203043 16 223 3.2 17.7 0.00 0.03 0.00 41 1022.7
20260506201542 16 276 3.2 16.1 0.00 0.03 0.00 39 1023.0
20260506200048 16 240 3.2 24.1 0.00 0.03 0.00 39 1023.1
20260506194552 15 171 4.8 16.1 0.00 0.03 0.00 42 1023.2
20260506193103 16 224 4.8 17.7 0.00 0.03 0.00 41 1023.3
20260506191552 16 204 9.7 19.3 0.00 0.03 0.00 42 1023.2
20260506190051 15 258 4.8 22.5 0.00 0.03 0.00 43 1023.2
20260506184549 16 184 6.4 17.7 0.00 0.03 0.00 42 1023.5
20260506183051 15 200 8.0 24.1 0.00 0.03 0.00 39 1023.5
20260506181612 15 169 3.2 20.9 0.00 0.03 0.00 44 1024.0
20260506180055 15 217 4.8 19.3 0.00 0.03 0.00 45 1023.9
20260506174553 15 217 4.8 16.1 0.00 0.05 0.00 47 1024.1
20260506173057 15 279 4.8 16.1 0.00 0.05 0.00 53 1024.3
20260506171550 14 251 8.0 22.5 0.00 0.05 0.00 51 1024.0